Location: Unspecified
(51.5147°N, 7.4673°E)
Time: 03:10:48
(UTC+01:00)

Vanguard 1 Rocket - Pass Details

Date: 16 February 2026
Orbit: 653 x 4214 km, 34.3° (Epoch: 12 March)

Event Time Altitude Azimuth Distance (km) Brightness Sun altitude
Rises 12:56:30 0° 198° (SSW) 4,361 12.1 26.2°
Reaches altitude 10° 12:59:56 10° 182° (S) 3,830 12.5 26.2°
Maximum altitude 13:07:12 21° 138° (SE) 3,901 11.4 26.1°
Drops below altitude 10° 13:17:58 10° 98° (E) 5,935 11.6 25.8°
Sets 13:25:21 0° 86° (E) 7,595 11.9 25.6°
